Regional Weather Roundup
Issued by NWS Burlington, VT

Home | Current Version | Previous Version | Text Only | Print | Product List | Glossary On
Versions: 1 2 3 4 5 6 7 8 9 10 11 12 13 14 15 16 17 18 19 20 21 22 23 24 25 26 27 28 29 30 31 32 33 34 35 36 37 38 39 40 41 42 43 44 45 46 47 48 49 50
014
ASUS41 KBTV 271510
RWRBTV
VERMONT REGIONAL WEATHER ROUNDUP
NATIONAL WEATHER SERVICE BURLINGTON VT
1100 AM EDT THU JUL 27 2017

NOTE: "FAIR" INDICATES FEW OR NO CLOUDS BELOW 12,000 FEET WITH NO
SIGNIFICANT WEATHER AND/OR OBSTRUCTIONS TO VISIBILITY.

* THESE REPORTS ARE NOT UNDER NWS QUALITY CONTROL AND/OR DO NOT
  REPORT WEATHER SUCH AS PRECIPITATION AND FOG.

VTZ001>019-271600-
_____VERMONT_____


CITY           SKY/WX    TMP DP  RH WIND       PRES   REMARKS
BURLINGTON     CLOUDY    73  63  70 S17G28    29.89S
MONTPELIER     CLOUDY    69  64  84 S8        29.95F
MORRISVILLE    PTSUNNY   68  62  81 SW8       29.91F
ST. JOHNSBURY*   N/A     68  63  84 MISG      29.90F
LYNDONVILLE*   CLOUDY    64  62  90 SE7       29.95F
MIDDLEBURY*    CLOUDY    67  61  83 S10       29.93S
RUTLAND*       CLOUDY    65  62  90 SE3       29.97S
SPRINGFIELD    CLOUDY    66  58  75 SE9       29.96F
HIGHGATE*      CLOUDY    65  63  93 S5        29.87S
NEWPORT*       CLOUDY    66  62  88 S5        29.91F
BENNINGTON     LGT RAIN  68  61  78 SW8       29.99S
SUTTON*          N/A     63 N/A N/A MISG        N/A

_____LAKE CHAMPLAIN_____


CITY           SKY/WX    TMP DP  RH WIND       PRES   REMARKS
BURTON ISLAND*   N/A     68  63  83 SW14        N/A
COLCHESTER RF*   N/A     68  63  83 S23         N/A
DIAMOND ISL*     N/A     68  61  77 SE17        N/A

$$

NYZ007-026>031-035-052-083-087-271600-
_____NORTHERN NEW YORK_____


CITY           SKY/WX    TMP DP  RH WIND       PRES   REMARKS
PLATTSBURGH    LGT RAIN  68  64  87 S5        29.88S FOG
SARANAC LAKE   CLOUDY    63  63 100 SW13      29.92F
MASSENA        CLOUDY    73  67  81 W9        29.88S
OGDENSBURG*    PTSUNNY   74  66  75 SW6       29.88F
POTSDAM*       CLOUDY    70  70 100 W8        29.89F
WATERTOWN      CLOUDY    71  69  93 SW9       29.90F
FT DRUM        CLOUDY    68  66  94 SW9       29.90F
ALBANY         LGT RAIN  65  63  93 S8        29.98F FOG
GLENS FALLS    LGT RAIN  64  61  90 S8        29.95F

$$
NHZ002-005-011-271600-
_____NEW HAMPSHIRE_____


CITY           SKY/WX    TMP DP  RH WIND       PRES   REMARKS
LEBANON        PTSUNNY   71  63  75 S12       29.93F
KEENE          CLOUDY    65  59  81 S3        29.99S
MT WASHINGTON  LGT RAIN  48  48 100 W39         N/A  VSB 0
PLYMOUTH       CLOUDY    67  61  80 CALM      29.94F
WHITEFIELD     CLOUDY    67  60  78 VRB3      29.93F

$$

_____REGIONAL QUEBEC LOCATIONS_____


CITY           SKY/WX    TMP DP  RH WIND       PRES   REMARKS
MONTREAL       PTSUNNY   72  66  83 SW14      29.84S
QUEBEC CITY    CLOUDY    66  63  88 SW15      29.81S
SHERBROOKE     CLOUDY    64  63  94 SW7       29.87F

_____REGIONAL ONTARIO LOCATIONS_____


CITY           SKY/WX    TMP DP  RH WIND       PRES   REMARKS
OTTAWA         PTSUNNY   72  63  73 NW13      29.87S

______KEY______
VSB  - VISIBILITY IN MILES
WCI  - WIND CHILL INDEX
HX   - HEAT INDEX
$$
NNNN




USA.gov is the U.S. government's official web portal to all federal, state and local government web resources and services.